map of CAB home
Great Circle Mapper logo
CAB - Airport
Location
City:  Cabinda, Angola
ICAO / IATA:FNCA / CAB

Details
Type:Airport (Aerodrome, Airfield)
Use:Public/Civil
Latitude:535'49"S (-5.596991)
Longitude:1211'18"E (12.188353)
Datum:WGS 1984
Elevation:66 ft (20 m)
Variation:3.07W (WMM2015 magnetic declination)
0.16 annual change
Runways:1
Longest:8202 × 98 ft (2500 × 30 m), paved

Time
Time Zone:UTC+1
Local Time:

Weather
METAR:FNCA 291100Z 24004KT 9999 FEW016 BKN025 23/20 Q1017
TAF:FNCA 281706Z 2812/2824 26005KT 9999 FEW015 SCT025
TEMPO 2814/2818 24010KT SCT020
TEMPO 2818/2824 24005KT OVC025

Related Locations
Nearby:
Farthest:PLPA: 12055 mi / 19400 km
Palmyra Island Atoll [Palmyra Airport (Cooper)], UM

Find:

   beyond  
but within

Other Information
Maps:
NOTAMs:
Links:
Sources:

  
flag of Angola   

Sectional Chart

Flight Planning
at skyvector.com

Satellite Image

Google Maps Satellite view

 

Copyright © 2004-2015 Karl L. Swartz. All rights reserved.
The Great Circle Mapper name and logo are trademarks of the Great Circle Mapper.
All other trademarks mentioned herein belong to their respective owners.
Please see credits for attibutions and further copyright information.

  Follow gcmap on Facebook Follow gcmap on Twitter Follow gcmap on Google+

hCard Microformat

Geo Microformat